When you browse on this site, cookies collect data to enhance your experience and personalize the content and advertising you see.
Visit our Privacy Policy to learn more. By continuing to use the site, you agree to this use of cookies and data.
  • In Schweiz
  • Länderverzeichnis
  • Für 7 Tage
  • Wassertemperatur
  • Satellitenkarten
  • Wetterkarte
  • Widgets
  • user-avatar
    Anmelden

    Stündliche Wetter Fedosovo

    Heute, 23 Januar, Mittwoch

    Zeit Temperatur Niederschläge Wind Luftdruck Luftfeuchtigkeit
    00:00 -23°C° 0 mm 2 m/S 747 mmHg 98%
    01:00 -23°C° 0 mm 2 m/S 747 mmHg 98%
    02:00 -23°C° 0 mm 2 m/S 747 mmHg 98%
    03:00 -23°C° 0 mm 2 m/S 747 mmHg 98%
    04:00 -23°C° 0 mm 2 m/S 747 mmHg 98%
    05:00 -23°C° 0 mm 2 m/S 747 mmHg 97%
    06:00 -24°C° 0 mm 2 m/S 747 mmHg 97%
    07:00 -24°C° 0 mm 2 m/S 747 mmHg 96%
    08:00 -24°C° 0 mm 2 m/S 747 mmHg 96%
    09:00 -21°C° 0 mm 2 m/S 747 mmHg 94%
    10:00 -20°C° 0 mm 2 m/S 747 mmHg 92%
    11:00 -18°C° 0 mm 2 m/S 747 mmHg 89%
    12:00 -18°C° 0 mm 2 m/S 747 mmHg 90%
    13:00 -17°C° 0 mm 2 m/S 747 mmHg 91%
    14:00 -16°C° 0 mm 2 m/S 747 mmHg 91%
    15:00 -17°C° 0 mm 2 m/S 747 mmHg 93%
    16:00 -19°C° 0 mm 2 m/S 746 mmHg 94%
    17:00 -20°C° 0 mm 2 m/S 746 mmHg 96%
    18:00 -20°C° 0 mm 2 m/S 746 mmHg 96%
    19:00 -20°C° 0 mm 2 m/S 746 mmHg 97%
    20:00 -20°C° 0 mm 2 m/S 746 mmHg 97%
    21:00 -20°C° 0 mm 2 m/S 746 mmHg 97%
    22:00 -20°C° 0 mm 2 m/S 746 mmHg 97%
    23:00 -20°C° 0 mm 2 m/S 746 mmHg 98%

    Morgen, 24 Januar, Donnerstag

    Zeit Temperatur Niederschläge Wind Luftdruck Luftfeuchtigkeit
    00:00 -20°C° 0 mm 2 m/S 746 mmHg 98%
    01:00 -20°C° 0 mm 2 m/S 746 mmHg 98%
    02:00 -20°C° 0 mm 2 m/S 745 mmHg 98%
    03:00 -20°C° 0 mm 2 m/S 745 mmHg 98%
    04:00 -21°C° 0 mm 2 m/S 745 mmHg 98%
    05:00 -21°C° 0 mm 2 m/S 745 mmHg 98%
    06:00 -21°C° 0 mm 2 m/S 745 mmHg 98%
    07:00 -21°C° 0 mm 2 m/S 744 mmHg 98%
    08:00 -21°C° 0 mm 2 m/S 744 mmHg 99%
    09:00 -20°C° 0 mm 2 m/S 744 mmHg 97%
    10:00 -18°C° 0 mm 2 m/S 744 mmHg 95%
    11:00 -17°C° 0 mm 2 m/S 744 mmHg 94%
    12:00 -16°C° 0 mm 2 m/S 744 mmHg 94%
    13:00 -15°C° 0 mm 2 m/S 744 mmHg 93%
    14:00 -14°C° 0 mm 2 m/S 744 mmHg 93%
    15:00 -14°C° 0 mm 2 m/S 745 mmHg 94%
    16:00 -15°C° 0 mm 2 m/S 745 mmHg 95%
    17:00 -13°C° 0 mm 1 m/S 745 mmHg 96%
    18:00 -14°C° 0 mm 1 m/S 746 mmHg 96%
    19:00 -14°C° 0 mm 1 m/S 746 mmHg 96%
    20:00 -15°C° 0 mm 1 m/S 747 mmHg 96%
    21:00 -16°C° 0 mm 1 m/S 747 mmHg 96%
    22:00 -16°C° 0 mm 1 m/S 748 mmHg 97%
    23:00 -17°C° 0 mm 1 m/S 748 mmHg 98%

    übermorgen, 25 Januar, Freitag

    Zeit Temperatur Niederschläge Wind Luftdruck Luftfeuchtigkeit
    00:00 -18°C° 0 mm 1 m/S 749 mmHg 98%
    01:00 -19°C° 0 mm 1 m/S 749 mmHg 98%
    02:00 -19°C° 0 mm 1 m/S 750 mmHg 99%
    03:00 -20°C° 0 mm 1 m/S 750 mmHg 99%
    04:00 -20°C° 0 mm 1 m/S 750 mmHg 99%
    05:00 -21°C° 0 mm 1 m/S 750 mmHg 99%
    06:00 -21°C° 0 mm 1 m/S 751 mmHg 99%
    07:00 -21°C° 0 mm 1 m/S 751 mmHg 99%
    08:00 -22°C° 0 mm 1 m/S 752 mmHg 98%
    09:00 -20°C° 0 mm 1 m/S 752 mmHg 96%
    10:00 -18°C° 0 mm 0 m/S 752 mmHg 94%
    11:00 -17°C° 0 mm 0 m/S 753 mmHg 92%
    12:00 -16°C° 0 mm 0 m/S 753 mmHg 93%
    13:00 -16°C° 0 mm 0 m/S 753 mmHg 93%
    14:00 -15°C° 0 mm 0 m/S 753 mmHg 93%
    15:00 -17°C° 0 mm 1 m/S 753 mmHg 95%
    16:00 -18°C° 0 mm 1 m/S 753 mmHg 96%
    17:00 -19°C° 0 mm 1 m/S 753 mmHg 97%
    18:00 -20°C° 0 mm 1 m/S 753 mmHg 98%
    19:00 -20°C° 0 mm 1 m/S 753 mmHg 98%
    20:00 -20°C° 0 mm 1 m/S 753 mmHg 98%
    21:00 -20°C° 0 mm 1 m/S 753 mmHg 97%
    22:00 -24°C° 0 mm 2 m/S 753 mmHg 97%
    23:00 -24°C° 0 mm 2 m/S 753 mmHg 97%

    26 Januar, Samstag

    Zeit Temperatur Niederschläge Wind Luftdruck Luftfeuchtigkeit
    00:00 -24°C° 0 mm 2 m/S 753 mmHg 97%
    01:00 -24°C° 0 mm 2 m/S 753 mmHg 96%
    02:00 -23°C° 0 mm 2 m/S 752 mmHg 96%
    03:00 -24°C° 0 mm 2 m/S 752 mmHg 95%
    04:00 -24°C° 0 mm 2 m/S 751 mmHg 95%
    05:00 -24°C° 0 mm 2 m/S 751 mmHg 95%
    06:00 -24°C° 0 mm 3 m/S 751 mmHg 93%
    07:00 -23°C° 0 mm 3 m/S 750 mmHg 92%
    08:00 -23°C° 0 mm 3 m/S 750 mmHg 91%
    09:00 -22°C° 0 mm 4 m/S 749 mmHg 88%
    10:00 -20°C° 0 mm 4 m/S 749 mmHg 86%
    11:00 -18°C° 0 mm 4 m/S 748 mmHg 83%
    12:00 -19°C° 0.1 mm 5 m/S 747 mmHg 85%
    13:00 -18°C° 0.1 mm 5 m/S 747 mmHg 87%
    14:00 -17°C° 0.1 mm 5 m/S 746 mmHg 89%
    15:00 -17°C° 0.7 mm 5 m/S 745 mmHg 90%
    16:00 -17°C° 0.7 mm 5 m/S 744 mmHg 92%
    17:00 -17°C° 0.7 mm 5 m/S 743 mmHg 94%
    18:00 -17°C° 0.5 mm 5 m/S 743 mmHg 93%
    19:00 -17°C° 0.5 mm 5 m/S 742 mmHg 93%
    20:00 -16°C° 0.5 mm 4 m/S 742 mmHg 92%
    21:00 -16°C° 0.3 mm 4 m/S 741 mmHg 93%
    22:00 -15°C° 0.3 mm 4 m/S 741 mmHg 93%
    23:00 -14°C° 0.3 mm 3 m/S 740 mmHg 94%

    27 Januar, Sonntag

    Zeit Temperatur Niederschläge Wind Luftdruck Luftfeuchtigkeit
    00:00 -14°C° 0.4 mm 3 m/S 740 mmHg 94%
    01:00 -14°C° 0.4 mm 3 m/S 739 mmHg 95%
    02:00 -14°C° 0.4 mm 3 m/S 739 mmHg 95%
    03:00 -12°C° 0.2 mm 2 m/S 739 mmHg 95%
    04:00 -12°C° 0.2 mm 2 m/S 738 mmHg 96%
    05:00 -12°C° 0.2 mm 2 m/S 738 mmHg 96%
    06:00 -12°C° 0.1 mm 2 m/S 738 mmHg 96%
    07:00 -12°C° 0.1 mm 2 m/S 738 mmHg 97%
    08:00 -10°C° 0.1 mm 1 m/S 738 mmHg 97%
    09:00 -9°C° 0.1 mm 1 m/S 738 mmHg 96%
    10:00 -8°C° 0.1 mm 1 m/S 738 mmHg 95%
    11:00 -7°C° 0.1 mm 1 m/S 738 mmHg 95%
    12:00 -7°C° 0 mm 1 m/S 738 mmHg 94%
    13:00 -7°C° 0 mm 0 m/S 739 mmHg 93%
    14:00 -6°C° 0 mm 0 m/S 739 mmHg 93%
    15:00 -7°C° 0 mm 0 m/S 739 mmHg 94%
    16:00 -8°C° 0 mm 1 m/S 739 mmHg 95%
    17:00 -9°C° 0 mm 1 m/S 739 mmHg 96%
    18:00 -9°C° 0 mm 1 m/S 740 mmHg 96%
    19:00 -9°C° 0 mm 1 m/S 740 mmHg 96%
    20:00 -9°C° 0 mm 1 m/S 740 mmHg 96%
    21:00 -8°C° 0 mm 1 m/S 740 mmHg 96%
    22:00 -8°C° 0 mm 1 m/S 741 mmHg 96%
    23:00 -7°C° 0 mm 1 m/S 741 mmHg 96%

    28 Januar, Montag

    Zeit Temperatur Niederschläge Wind Luftdruck Luftfeuchtigkeit
    00:00 -6°C° 0 mm 1 m/S 741 mmHg 96%
    01:00 -6°C° 0 mm 1 m/S 741 mmHg 96%
    02:00 -6°C° 0 mm 1 m/S 741 mmHg 96%
    03:00 -4°C° 0 mm 1 m/S 742 mmHg 96%
    04:00 -4°C° 0 mm 1 m/S 742 mmHg 96%
    05:00 -5°C° 0 mm 2 m/S 742 mmHg 96%
    06:00 -5°C° 0.1 mm 2 m/S 742 mmHg 96%
    07:00 -4°C° 0.1 mm 2 m/S 742 mmHg 96%
    08:00 -4°C° 0.1 mm 2 m/S 743 mmHg 96%
    09:00 -3°C° 0.1 mm 2 m/S 743 mmHg 96%
    10:00 -2°C° 0.1 mm 2 m/S 743 mmHg 96%
    11:00 -2°C° 0.1 mm 2 m/S 744 mmHg 96%
    12:00 -1°C° 0 mm 2 m/S 744 mmHg 97%
    13:00 -1°C° 0 mm 2 m/S 744 mmHg 98%
    14:00 -1°C° 0 mm 2 m/S 744 mmHg 99%
    15:00 -1°C° 0 mm 2 m/S 744 mmHg 99%
    16:00 +1°C° 0 mm 1 m/S 745 mmHg 98%
    17:00 0°C° 0 mm 1 m/S 745 mmHg 97%
    18:00 0°C° 0 mm 1 m/S 745 mmHg 97%
    19:00 -2°C° 0 mm 2 m/S 745 mmHg 97%
    20:00 -2°C° 0 mm 2 m/S 745 mmHg 97%
    21:00 -2°C° 0 mm 2 m/S 746 mmHg 96%
    22:00 -2°C° 0 mm 2 m/S 746 mmHg 96%
    23:00 -2°C° 0 mm 2 m/S 746 mmHg 96%
    Mehr zeigen